| time (UTC) | temp F | wind direction | speed knots | gust knots | rain 1hr in | rain 24hr in | rain mn in | humidity % | barometer mb |
| 20260505041407 | 53 | 206 | 0.0 | 0.0 | 0.00 | 0.06 | 0.00 | 94 | 1013.0 |
| 20260505040402 | 53 | 206 | 0.0 | 0.0 | 0.00 | 0.06 | 0.00 | 94 | 1012.9 |
| 20260505035409 | 53 | 206 | 0.0 | 1.7 | 0.00 | 0.06 | 0.00 | 95 | 1013.0 |
| 20260505034401 | 53 | 206 | 0.9 | 2.6 | 0.00 | 0.06 | 0.00 | 94 | 1012.9 |
| 20260505033354 | 53 | 206 | 0.0 | 2.6 | 0.00 | 0.06 | 0.00 | 94 | 1012.8 |
| 20260505032403 | 53 | 206 | 0.9 | 2.6 | 0.00 | 0.06 | 0.00 | 94 | 1012.9 |
| 20260505031416 | 53 | 206 | 0.0 | 0.0 | 0.00 | 0.06 | 0.00 | 94 | 1012.9 |
| 20260505030409 | 53 | 206 | 1.7 | 2.6 | 0.00 | 0.06 | 0.00 | 94 | 1012.9 |
| 20260505025402 | 54 | 206 | 0.0 | 0.0 | 0.00 | 0.06 | 0.00 | 94 | 1012.9 |
| 20260505024359 | 54 | 206 | 0.0 | 0.0 | 0.00 | 0.06 | 0.00 | 94 | 1013.0 |
| 20260505023355 | 54 | 206 | 0.0 | 0.9 | 0.00 | 0.06 | 0.00 | 94 | 1013.0 |
| 20260505022408 | 54 | 206 | 0.9 | 3.5 | 0.00 | 0.06 | 0.00 | 93 | 1012.9 |
| 20260505021404 | 54 | 206 | 0.0 | 0.0 | 0.00 | 0.06 | 0.00 | 92 | 1012.9 |
| 20260505020357 | 54 | 206 | 0.0 | 0.9 | 0.00 | 0.06 | 0.00 | 93 | 1012.8 |
| 20260505015406 | 54 | 206 | 0.0 | 0.0 | 0.00 | 0.06 | 0.00 | 92 | 1012.8 |
| 20260505013403 | 55 | 206 | 0.9 | 1.7 | 0.00 | 0.06 | 0.00 | 93 | 1012.8 |
| 20260505012406 | 55 | 206 | 0.0 | 0.9 | 0.00 | 0.06 | 0.00 | 93 | 1012.9 |
| 20260505011404 | 55 | 206 | 0.9 | 3.5 | 0.00 | 0.06 | 0.00 | 93 | 1012.9 |
| 20260505010356 | 55 | 206 | 0.0 | 1.7 | 0.00 | 0.06 | 0.00 | 93 | 1013.0 |
| 20260505005400 | 55 | 206 | 0.9 | 4.3 | 0.01 | 0.06 | 0.00 | 93 | 1013.0 |
| 20260505003401 | 56 | 207 | 0.9 | 3.5 | 0.01 | 0.06 | 0.00 | 93 | 1012.9 |
| 20260505002358 | 56 | 208 | 0.0 | 4.3 | 0.01 | 0.06 | 0.00 | 93 | 1013.1 |
| 20260505001402 | 56 | 209 | 0.9 | 3.5 | 0.01 | 0.06 | 0.00 | 94 | 1013.1 |
| 20260505000413 | 56 | 209 | 0.9 | 1.7 | 0.01 | 0.06 | 0.00 | 93 | 1013.1 |
| 20260504235357 | 56 | 208 | 0.0 | 2.6 | 0.00 | 0.06 | 0.00 | 93 | 1013.1 |
| 20260504234405 | 56 | 209 | 0.9 | 4.3 | 0.00 | 0.06 | 0.00 | 93 | 1012.9 |
| 20260504233401 | 57 | 210 | 0.9 | 3.5 | 0.00 | 0.06 | 0.00 | 93 | 1013.0 |
| 20260504232354 | 57 | 209 | 1.7 | 2.6 | 0.00 | 0.06 | 0.00 | 92 | 1013.0 |
| 20260504231406 | 57 | 209 | 1.7 | 3.5 | 0.00 | 0.06 | 0.00 | 92 | 1013.0 |
| 20260504230413 | 57 | 209 | 0.9 | 2.6 | 0.00 | 0.06 | 0.00 | 92 | 1012.9 |
| 20260504225402 | 57 | 209 | 1.7 | 4.3 | 0.00 | 0.06 | 0.00 | 92 | 1012.9 |
| 20260504224403 | 57 | 210 | 0.9 | 3.5 | 0.00 | 0.06 | 0.00 | 91 | 1012.8 |
| 20260504223402 | 57 | 206 | 0.9 | 4.3 | 0.00 | 0.06 | 0.00 | 90 | 1012.6 |
| 20260504222354 | 57 | 206 | 0.9 | 6.1 | 0.00 | 0.06 | 0.00 | 90 | 1012.6 |
| 20260504221356 | 58 | 207 | 1.7 | 4.3 | 0.00 | 0.06 | 0.00 | 88 | 1012.7 |
| 20260504220400 | 58 | 204 | 0.9 | 2.6 | 0.00 | 0.06 | 0.00 | 88 | 1012.5 |
| 20260504215413 | 58 | 259 | 0.9 | 2.6 | 0.00 | 0.06 | 0.05 | 86 | 1012.4 |
| 20260504214354 | 59 | 258 | 0.9 | 3.5 | 0.01 | 0.06 | 0.05 | 85 | 1012.5 |
| 20260504213413 | 59 | 251 | 2.6 | 4.3 | 0.02 | 0.06 | 0.05 | 85 | 1012.6 |
| 20260504212419 | 60 | 168 | 0.9 | 3.5 | 0.02 | 0.06 | 0.05 | 83 | 1012.7 |
| 20260504211419 | 60 | 166 | 0.9 | 2.6 | 0.02 | 0.06 | 0.05 | 82 | 1012.8 |
| 20260504210411 | 60 | 291 | 0.0 | 1.7 | 0.02 | 0.06 | 0.05 | 81 | 1013.1 |
| 20260504205348 | 60 | 291 | 0.9 | 2.6 | 0.03 | 0.06 | 0.03 | 79 | 1012.9 |
| 20260504204415 | 60 | 291 | 0.0 | 5.2 | 0.02 | 0.07 | 0.03 | 78 | 1013.2 |
| 20260504203410 | 61 | 318 | 0.9 | 6.1 | 0.02 | 0.06 | 0.03 | 77 | 1013.3 |
| 20260504202356 | 61 | 259 | 4.3 | 11.3 | 0.01 | 0.06 | 0.02 | 76 | 1013.6 |
| 20260504201400 | 62 | 261 | 7.0 | 19.1 | 0.01 | 0.06 | 0.02 | 76 | 1013.5 |
| 20260504200400 | 63 | 253 | 7.8 | 12.2 | 0.01 | 0.06 | 0.02 | 83 | 1013.3 |
| 20260504195359 | 63 | 223 | 1.7 | 4.3 | 0.00 | 0.05 | 0.02 | 84 | 1012.7 |
| 20260504194358 | 63 | 219 | 0.9 | 3.5 | 0.00 | 0.05 | 0.02 | 83 | 1012.5 |
| 20260504193359 | 63 | 216 | 1.7 | 4.3 | 0.00 | 0.05 | 0.02 | 83 | 1012.4 |
| 20260504191359 | 63 | 220 | 3.5 | 4.3 | 0.00 | 0.05 | 0.02 | 81 | 1012.1 |
| 20260504190357 | 63 | 216 | 2.6 | 5.2 | 0.00 | 0.05 | 0.02 | 81 | 1012.1 |
| 20260504185413 | 63 | 211 | 2.6 | 4.3 | 0.00 | 0.05 | 0.02 | 81 | 1012.0 |
| 20260504184409 | 64 | 210 | 1.7 | 2.6 | 0.00 | 0.06 | 0.02 | 80 | 1011.8 |
| 20260504183405 | 64 | 210 | 2.6 | 4.3 | 0.00 | 0.06 | 0.02 | 79 | 1011.8 |
| 20260504182413 | 64 | 207 | 2.6 | 4.3 | 0.00 | 0.06 | 0.02 | 78 | 1011.6 |
| 20260504181409 | 64 | 181 | 0.9 | 5.2 | 0.00 | 0.06 | 0.02 | 78 | 1011.3 |
| 20260504180404 | 64 | 221 | 3.5 | 6.1 | 0.00 | 0.06 | 0.02 | 77 | 1011.3 |
| 20260504175358 | 65 | 229 | 1.7 | 4.3 | 0.00 | 0.06 | 0.02 | 77 | 1011.4 |
| 20260504174353 | 65 | 197 | 0.9 | 3.5 | 0.00 | 0.06 | 0.02 | 76 | 1011.3 |
| 20260504173424 | 65 | 116 | 0.9 | 3.5 | 0.00 | 0.06 | 0.02 | 76 | 1011.5 |
| 20260504172423 | 65 | 114 | 0.9 | 2.6 | 0.00 | 0.06 | 0.02 | 75 | 1011.6 |
| 20260504171413 | 65 | 110 | 0.0 | 1.7 | 0.00 | 0.06 | 0.02 | 76 | 1011.5 |
| 20260504170415 | 65 | 112 | 0.9 | 2.6 | 0.00 | 0.06 | 0.02 | 76 | 1011.6 |
| 20260504160415 | 64 | 127 | 2.6 | 4.3 | 0.01 | 0.06 | 0.02 | 77 | 1011.9 |
| 20260504150400 | 64 | 283 | 3.5 | 6.1 | 0.00 | 0.05 | 0.02 | 78 | 1012.4 |
| 20260504140352 | 66 | 214 | 5.2 | 10.4 | 0.00 | 0.05 | 0.02 | 71 | 1012.4 |
| 20260504130341 | 67 | 191 | 0.9 | 7.8 | 0.00 | 0.05 | 0.02 | 70 | 1012.6 |
| 20260504110339 | 68 | 114 | 3.5 | 9.6 | 0.00 | 0.03 | 0.00 | 67 | 1012.8 |
| 20260504100346 | 71 | 219 | 7.0 | 11.3 | 0.00 | 0.03 | 0.00 | 57 | 1012.9 |
| 20260504081354 | 66 | 183 | 1.7 | 6.1 | 0.00 | 0.03 | 0.00 | 70 | 1013.2 |
| 20260504080339 | 66 | 219 | 0.9 | 4.3 | 0.00 | 0.03 | 0.00 | 72 | 1013.3 |
| 20260504070348 | 62 | 245 | 0.0 | 3.5 | 0.00 | 0.03 | 0.00 | 89 | 1013.9 |
| 20260504050335 | 60 | 9 | 0.0 | 0.9 | 0.00 | 0.03 | 0.00 | 94 | 1013.9 |
| 20260504045354 | 60 | 9 | 0.0 | 0.9 | 0.00 | 0.03 | 0.00 | 94 | 1014.0 |
| 20260504044356 | 60 | 9 | 0.9 | 2.6 | 0.00 | 0.03 | 0.00 | 94 | 1013.9 |